Flag for U.S.A. Weather past 2 weeks in Myrtle Beach, South Carolina, U.S.A.

Now
70 °F

Clear.


Feels Like: 70 °F
Forecast: 60 / 78 °F
Wind: 6 mph from Southwest

Location: Myrtle Beach Air Force Base

Current Time: Apr 25, 2015 at 10:18:30 PM

Latest Report: Apr 25, 2015 at 9:50 PM


Visibility: 10 mi

Pressure: 29.63 "Hg

Humidity: 83%

Dew point: 64 °F

Location of Myrtle BeachLocation

Historic Weather in Myrtle Beach — Graph

°F

Myrtle Beach temperature yesterday

Maximum temperature yesterday: 70 °F (at 2:45 PM)
Minimum temperature yesterday: 52 °F (at 6:53 AM)
Average temperature yesterday: 61 °F

Past Weeks' High & Low Weather Summary

 TemperatureHumidityPressure
High81 °F (Apr 22, 4:45 PM)100% (Apr 14, 5:45 PM)30.31 "Hg (Apr 14, 5:45 PM)
Low52 °F (Apr 24, 6:53 AM)20% (Apr 24, 1:45 PM)29.65 "Hg (Apr 25, 8:45 PM)
Average66 °F74%30.03 "Hg
* Reported Apr 10 9:47 PM — Apr 25 8:45 PM, Myrtle Beach, Weather by CustomWeather, © 2015

Note: Actual official high and low records may vary slightly from our data, if they occured in-between our weather recording intervals... More about our weather records

Advertising

Myrtle Beach weather history for previous 24 hours

 ConditionsComfort  
Time TempWeatherWind HumidityBarometerVisibility
8:45 PM
Sat, Apr 25
70 °FMild.7 mph83%29.65 "Hg10 mi
6:50 PM70 °FBroken clouds.12 mph83%29.66 "Hg7 mi
5:50 PM70 °FMore clouds than sun.17 mph83%29.70 "Hg7 mi
4:45 PM70 °FOvercast.17 mph78%29.73 "Hg10 mi
3:45 PM72 °FMostly cloudy.14 mph69%29.76 "Hg10 mi
2:45 PM72 °FMostly cloudy.17 mph65%29.81 "Hg10 mi
1:50 PM68 °FPartly sunny.10 mph78%29.84 "Hg10 mi
12:45 PM64 °FLight rain. Mostly cloudy.7 mph78%29.89 "Hg7 mi
11:45 AM63 °FLight rain. Mostly cloudy.6 mph73%29.94 "Hg8 mi
10:45 AM63 °FOvercast.6 mph77%29.97 "Hg8 mi
9:45 AM63 °FMostly cloudy.9 mph77%29.95 "Hg10 mi
8:45 AM64 °FOvercast.9 mph64%29.96 "Hg10 mi
7:45 AM63 °FOvercast.3 mph68%29.96 "Hg10 mi
5:55 AM61 °FOvercast.3 mph63%29.95 "Hg10 mi
5:35 AM61 °FPassing clouds.3 mph63%29.96 "Hg10 mi
5:15 AM61 °FPassing clouds.5 mph63%29.96 "Hg10 mi
4:55 AM59 °FClear.3 mph68%29.96 "Hg10 mi
4:35 AM57 °FPassing clouds.No wind67%29.97 "Hg10 mi
4:15 AM59 °FClear.No wind63%29.97 "Hg10 mi
3:55 AM57 °FClear.5 mph67%29.98 "Hg10 mi
3:35 AM57 °FClear.6 mph67%29.98 "Hg10 mi
3:15 AM57 °FClear.6 mph67%29.98 "Hg10 mi
2:55 AM59 °FClear.5 mph63%29.97 "Hg10 mi
2:35 AM61 °FClear.3 mph59%29.98 "Hg10 mi
2:15 AM61 °FClear.6 mph55%29.99 "Hg10 mi
1:55 AM61 °FClear.8 mph55%30.00 "Hg10 mi
1:35 AM61 °FClear.5 mph55%30.00 "Hg10 mi
1:15 AM61 °FClear.8 mph55%30.01 "Hg10 mi
12:55 AM61 °FClear.7 mph55%30.01 "Hg10 mi
12:35 AM61 °FClear.6 mph55%30.01 "Hg10 mi
12:15 AM61 °FClear.6 mph52%30.02 "Hg10 mi
11:35 PM
Fri, Apr 24
59 °FClear.3 mph55%30.03 "Hg10 mi
11:15 PM59 °FClear.5 mph51%30.04 "Hg10 mi
10:45 PM59 °FClear.6 mph51%30.04 "Hg10 mi
Weather by CustomWeather, © 2015

See weather overviewHow to use our weather pages